Le nostre stazioni meteo in Italia

Pubblicità
Il mio iltempo24.it
Lamezia Terme, Italia (16362): Temperatura & dewpoint: 16.01.2020 00:00:00 - 22.01.2020 00:00:00 (CET)Lamezia Terme, Italia (16362): velocità del vento: 16.01.2020 00:00:00 - 22.01.2020 00:00:00 (CET)Lamezia Terme, Italia (16362): direzione del vento: 16.01.2020 00:00:00 - 22.01.2020 00:00:00 (CET)Lamezia Terme, Italia (16362): reduced air pressure: 16.01.2020 00:00:00 - 22.01.2020 00:00:00 (CET)Lamezia Terme, Italia (16362): visibility: 16.01.2020 00:00:00 - 22.01.2020 00:00:00 (CET)Lamezia Terme, Italia (16362): precipitazioni: 16.01.2020 00:00:00 - 22.01.2020 00:00:00 (CET)
Data & Tempo tt [°C] td [°C] ff [km/h] ff [kn] dd ppp [hPa] vv [km] rr [mm]
22.01.2020 00:00:00 - - - - - - - -
21.01.2020 23:00:00 - - - - - - - -
21.01.2020 22:00:00 10,0 6,0 26 14 NE - 10 -
21.01.2020 21:00:00 - - - - - - - -
21.01.2020 20:00:00 - - - - - - - -
21.01.2020 19:00:00 11,0 7,0 24 13 NE - 10 -
21.01.2020 18:00:00 - - - - - - - -
21.01.2020 17:00:00 - - - - - - - -
21.01.2020 16:00:00 13,4 7,3 31 17 E 1036,2 10 0,0
21.01.2020 15:00:00 - - - - - - - -
21.01.2020 14:00:00 - - - - - - - -
21.01.2020 13:00:00 14,3 6,8 35 19 E 1037,0 15 -
21.01.2020 12:00:00 - - - - - - - -
21.01.2020 11:00:00 14,0 7,0 35 19 E - 10 -
21.01.2020 10:00:00 13,3 6,3 26 14 ENE 1038,0 15 0,0
21.01.2020 09:00:00 - - - - - - - -
21.01.2020 08:00:00 - - - - - - - -
21.01.2020 07:00:00 10,0 6,0 22 12 NE - 10 -
21.01.2020 06:00:00 - - - - - - - -
21.01.2020 05:00:00 - - - - - - - -
21.01.2020 04:00:00 10,2 5,6 22 12 NE 1036,1 10 0,0
21.01.2020 03:00:00 11,0 6,0 24 13 NE - 10 -
21.01.2020 02:00:00 11,0 5,0 24 13 NE - 10 -
21.01.2020 01:00:00 12,0 5,7 28 15 ENE 1036,0 10 -
21.01.2020 00:00:00 - - - - - - - -
20.01.2020 23:00:00 - - - - - - - -
20.01.2020 22:00:00 12,2 6,3 22 12 ENE 1035,9 10 0,0
20.01.2020 21:00:00 13,0 6,0 26 14 ENE - 10 -
20.01.2020 20:00:00 13,0 5,0 31 17 E - 10 -
20.01.2020 19:00:00 - - - - - - - -
20.01.2020 18:00:00 - - - - - - - -
20.01.2020 17:00:00 13,0 7,0 18 10 ENE - 10 -
20.01.2020 16:00:00 14,0 7,0 28 15 E - 10 -
20.01.2020 15:00:00 15,0 6,0 28 15 E - 10 -
20.01.2020 14:00:00 - - - - - - - -
20.01.2020 13:00:00 - - - - - - - -
20.01.2020 12:00:00 - - - - - - - -
20.01.2020 11:00:00 14,0 6,0 31 17 E - 10 -
20.01.2020 10:00:00 13,9 6,4 21 11 ENE 1032,0 10 0,0
20.01.2020 09:00:00 13,0 6,0 21 11 NE - 10 -
20.01.2020 08:00:00 11,0 6,0 18 10 NE - 10 -
20.01.2020 07:00:00 10,2 6,3 15 8 NE 1030,0 10 -
20.01.2020 06:00:00 10,0 7,0 18 10 NE - 10 -
20.01.2020 05:00:00 10,0 7,0 18 10 NE - 10 -
20.01.2020 04:00:00 10,4 6,8 18 10 NE 1028,5 10 0,0
20.01.2020 03:00:00 9,0 7,0 16 9 ENE - 10 -
20.01.2020 02:00:00 10,0 6,0 26 14 NE - 10 -
20.01.2020 01:00:00 9,6 6,4 21 11 NE 1027,6 10 -
20.01.2020 00:00:00 10,0 7,0 21 11 NE - 10 -
19.01.2020 23:00:00 10,0 7,0 16 9 NE - 10 -
19.01.2020 22:00:00 10,2 7,2 16 9 NE 1026,5 10 0,0
19.01.2020 21:00:00 11,0 8,0 16 9 NE - 10 -
19.01.2020 20:00:00 10,0 8,0 13 7 NE - 10 -
19.01.2020 19:00:00 10,3 8,6 8 4 NE 1025,3 10 -
19.01.2020 18:00:00 11,0 9,0 9 5 E - 10 -
19.01.2020 17:00:00 13,0 9,0 2 1 - - 10 -
19.01.2020 16:00:00 14,3 8,6 5 3 OSO 1022,8 10 0,0
19.01.2020 15:00:00 14,0 9,0 11 6 SO - 10 -
19.01.2020 14:00:00 15,0 9,0 9 5 S - 10 -
19.01.2020 13:00:00 14,7 9,4 8 4 S 1022,3 10 -
19.01.2020 12:00:00 14,0 10,0 13 7 SSE - 10 -
19.01.2020 11:00:00 12,0 10,0 5 3 SSE - 10 -
19.01.2020 10:00:00 12,0 10,2 8 4 SSE 1022,8 10 0,0
19.01.2020 09:00:00 11,0 9,0 5 3 S - 10 -
19.01.2020 08:00:00 9,0 7,0 8 4 NE - 10 -
19.01.2020 07:00:00 11,3 7,5 16 9 O 1021,4 10 -
19.01.2020 06:00:00 10,0 8,0 13 7 O - 10 -
19.01.2020 05:00:00 13,0 8,0 29 16 O - 10 -
19.01.2020 04:00:00 12,2 9,8 29 16 O 1020,8 10 0,0
19.01.2020 03:00:00 13,0 8,0 31 17 O - 10 -
19.01.2020 02:00:00 13,0 8,0 26 14 O - 10 -
19.01.2020 01:00:00 11,5 8,6 11 6 ONO 1021,2 10 -
19.01.2020 00:00:00 13,0 9,0 22 12 O - 10 -
18.01.2020 23:00:00 12,0 10,0 16 9 O - 10 -
18.01.2020 22:00:00 11,1 9,1 11 6 O 1021,8 10 0,0
18.01.2020 21:00:00 10,0 8,0 9 5 N - 8 -
18.01.2020 20:00:00 11,0 7,0 15 8 O - 10 -
18.01.2020 19:00:00 11,5 7,0 16 9 O 1022,6 10 -
18.01.2020 18:00:00 12,0 9,0 16 9 O - 10 -
18.01.2020 17:00:00 13,0 10,0 18 10 OSO - 10 -
18.01.2020 16:00:00 13,0 10,0 16 9 OSO - 10 -
18.01.2020 15:00:00 13,0 11,0 26 14 O - 10 -
18.01.2020 14:00:00 15,0 9,0 26 14 O - 10 -
18.01.2020 13:00:00 14,3 9,3 28 15 O 1023,1 10 -
18.01.2020 12:00:00 14,0 10,0 16 9 SO - 10 -
18.01.2020 11:00:00 14,0 9,0 5 3 OSO - 10 -
18.01.2020 10:00:00 13,8 9,0 5 3 SSO 1025,0 10 0,0
18.01.2020 09:00:00 9,0 7,0 5 3 E - 10 -
18.01.2020 08:00:00 6,0 5,0 9 5 E - 10 -
18.01.2020 07:00:00 7,5 5,8 2 1 N 1025,3 15 -
18.01.2020 06:00:00 9,0 6,0 4 2 - - 10 -
18.01.2020 05:00:00 11,0 6,0 13 7 OSO - 10 -
18.01.2020 04:00:00 11,2 6,4 9 5 O 1025,2 10 0,0
18.01.2020 03:00:00 6,0 5,0 8 4 E - 10 -
18.01.2020 02:00:00 11,0 6,0 11 6 O - 10 -
18.01.2020 01:00:00 11,8 6,7 9 5 OSO 1026,0 10 -
18.01.2020 00:00:00 6,0 5,0 5 3 ESE - 10 -
17.01.2020 23:00:00 5,0 4,0 5 3 E - 10 -
17.01.2020 22:00:00 5,5 4,0 4 2 - 1026,7 10 0,0
17.01.2020 21:00:00 10,0 6,0 5 3 OSO - 10 -
17.01.2020 20:00:00 10,0 6,0 9 5 O - 10 -
17.01.2020 19:00:00 10,1 5,4 11 6 O 1026,5 10 -
17.01.2020 18:00:00 11,0 6,0 11 6 O - 10 -
17.01.2020 17:00:00 12,0 6,0 13 7 OSO - 10 -
17.01.2020 16:00:00 12,9 6,7 18 10 O 1025,8 10 0,0
17.01.2020 15:00:00 14,0 7,0 18 10 O - 10 -
17.01.2020 14:00:00 14,0 7,0 21 11 O - 10 -
17.01.2020 13:00:00 15,0 6,0 21 11 O - 10 -
17.01.2020 12:00:00 15,0 6,0 24 13 O - 10 -
17.01.2020 11:00:00 15,0 6,0 18 10 O - 10 -
17.01.2020 10:00:00 14,2 5,0 15 8 O 1027,2 10 0,0
17.01.2020 09:00:00 12,0 6,0 9 5 O - 10 -
17.01.2020 08:00:00 11,0 6,0 5 3 O - 10 -
17.01.2020 07:00:00 10,7 5,9 9 5 O 1026,9 10 -
17.01.2020 06:00:00 11,0 6,0 13 7 O - 10 -
17.01.2020 05:00:00 12,0 6,0 18 10 O - 10 -
17.01.2020 04:00:00 12,3 6,0 11 6 O 1026,9 10 0,0
17.01.2020 03:00:00 12,0 6,0 13 7 O - 10 -
17.01.2020 02:00:00 13,0 6,0 16 9 O - 10 -
17.01.2020 01:00:00 12,2 5,7 16 9 O 1027,4 10 -
17.01.2020 00:00:00 - - - - - - - -
16.01.2020 23:00:00 12,0 6,0 15 8 O - 10 -
16.01.2020 22:00:00 12,9 5,5 15 8 OSO 1027,9 10 0,0
16.01.2020 21:00:00 13,0 6,0 18 10 O - 10 -
16.01.2020 20:00:00 12,0 7,0 15 8 O - 10 -
16.01.2020 19:00:00 11,4 6,5 15 8 O 1028,1 10 -
16.01.2020 18:00:00 12,0 7,0 18 10 O - 10 -
16.01.2020 17:00:00 13,0 7,0 18 10 O - 10 -
16.01.2020 16:00:00 13,7 7,1 21 11 OSO 1027,4 10 0,0
16.01.2020 15:00:00 15,0 8,0 24 13 OSO - 10 -
16.01.2020 14:00:00 15,0 9,0 24 13 OSO - 10 -
16.01.2020 13:00:00 14,9 9,5 22 12 OSO 1028,0 10 -
16.01.2020 12:00:00 14,0 10,0 26 14 O - 10 -
16.01.2020 11:00:00 14,0 10,0 21 11 O - 10 -
16.01.2020 10:00:00 14,0 10,5 15 8 SSO 1029,3 10 0,0
16.01.2020 09:00:00 10,0 9,0 4 2 - - 10 -
16.01.2020 08:00:00 9,0 7,0 5 3 - - 10 -
16.01.2020 07:00:00 11,0 9,0 9 5 OSO - 10 -
16.01.2020 06:00:00 11,0 9,0 11 6 SO - 10 -
16.01.2020 05:00:00 9,0 9,0 5 3 SO - 10 -
16.01.2020 04:00:00 6,9 6,1 4 2 N 1028,5 10 0,0
16.01.2020 03:00:00 11,0 9,0 9 5 SO - 10 -
16.01.2020 02:00:00 6,0 5,0 4 2 - - 10 -
16.01.2020 01:00:00 5,0 4,0 4 2 ENE - 10 -
16.01.2020 00:00:00 6,0 5,0 5 3 ENE - 10 -

tt = Temperatura
td = dewpoint
ff = velocità del vento
dd = direzione del vento
ppp = reduced air pressure
vv = visibility
rr = precipitazioni

Stazioni seguenti

WeatherPro
AMSI
MeteoEarth